CZ-6A DEB, 54411

Orbit data source: Space-Track

CZ-6A DEB, 54411 is space debris in SSO originally from a launch on Fri, 11 Nov 2022 UTC launched from the Taiyaun Space Center, China (TSC). Debris objects in space refer to the collection of defunct objects orbiting the Earth. Examples of debris include non-operational satellites, rocket bodies, and fragments generated from explosions, collisions, or faulty payload assembly.

Loading next visibility...
Identifier
54411, 2022-151EK
Orbit
SSO
Country
Flag of CNCN / PRC
Related business
Manufacturer
SAST
Mission
Spacecraft
Bus & Motor
Unknown
Mass
Unknown
Launch date (UTC)
2022-11-11 (4 years ago)
Launch vehicle
Unknown
Launch site
Taiyaun Space Center, China (TSC)
Object type
Payload
Rocket body
Debris
Shape & HBR
Unknown shape, 0.1 m
Radar Cross Section
Medium (>0.1 m² and <1 m²)

Expand to show TLE details & history
Last TLE update: 17 hours ago

TLE from 17 hours ago
0 CZ-6A DEB
1 54411U 22151EK  26209.01581443  .00001027  00000-0  33274-3 0  9993
2 54411  98.7082 233.8553 0203262 189.7236 169.9987 14.30116527192743
Epoch: 2026-07-28T00:22Z
TLE epoch observation values (Epoch: 2026-07-28T00:22:46.366Z)
Latitude
0.00002°
Longitude
-77.52899°
Altitude
937.9 km
Speed
7.309 km/s
True Right ascension
15h 35m 25s
True Declination
0° 00' 00"
Sunlit
Object was in daylight at epoch
Visualization orbit readout
Latitude
Unknown
Longitude
Unknown
Altitude
Unknown
Speed
Unknown
Apparent Right ascension
Unknown
Apparent Declination
Unknown
Sunlit
N/A
Visualization observer readout
Local Sidereal Time
06:26:52
Azimuth
Unknown
Elevation
Unknown
Doppler factor
Unknown
Orbital elements
Apogee altitude
934.155 km
Perigee altitude
642.814 km
Semi-major axis
7,166.622 km
Eccentricity
0.02033
Inclination
98.7082°
RAAN
233.8553°
Arg. of periapsis
189.7236°
True anomaly
170.39333°
Mean anomaly
169.9987°
Eccentric anomaly
170.19699°
Mean motion
3.57743 °/min
Orbital period
100.63 mins
BSTAR
0.00033274
Loading maneuver chart data...
Computing Atmospheric mass density...
Loading historical data...
Loading historical data...
Loading historical data...
Loading historical data...
Loading historical data...
Loading historical data...
Loading historical data...

Documentation

Showing up to 5 results
|